Weather reports worldwide

Advertisment
Medina De Pomar, Spain (8063): temperature & dewpoint: 17.05.2019 14:00:00 - 23.05.2019 14:00:00 (CEST)Medina De Pomar, Spain (8063): wind speed & gusts: 17.05.2019 14:00:00 - 23.05.2019 14:00:00 (CEST)Medina De Pomar, Spain (8063): wind direction: 17.05.2019 14:00:00 - 23.05.2019 14:00:00 (CEST)Medina De Pomar, Spain (8063): reduced air pressure: 17.05.2019 14:00:00 - 23.05.2019 14:00:00 (CEST)Medina De Pomar, Spain (8063): visibility: 17.05.2019 14:00:00 - 23.05.2019 14:00:00 (CEST)Medina De Pomar, Spain (8063): sunshine duration: 17.05.2019 14:00:00 - 23.05.2019 14:00:00 (CEST)Medina De Pomar, Spain (8063): precipitation: 17.05.2019 14:00:00 - 23.05.2019 14:00:00 (CEST)
Date & Time tt [°C] td [°C] ff [km/h] ff [kn] fx [km/h] fx [kn] dd ppp [hPa] vv [km] sd [min] rr [mm]
23.05.2019 14:00:00 - - - - - - - - - - -
23.05.2019 13:00:00 - - - - - - - - - - -
23.05.2019 12:00:00 - - - - - - - - - - -
23.05.2019 11:00:00 - - - - - - - - - - -
23.05.2019 10:00:00 13,9 8,1 3 1 6 4 WSW 1018,6 20 55 0,0
23.05.2019 09:00:00 10,9 7,7 3 1 7 4 SW 1019,4 20 28 0,0
23.05.2019 08:00:00 - - - - - - - - - - -
23.05.2019 07:00:00 7,1 5,5 2 1 6 4 SSW 1020,2 20 0 0,0
23.05.2019 06:00:00 - - - - - - - - - - -
23.05.2019 05:00:00 8,3 6,4 1 1 9 5 SSE 1019,7 20 0 0,0
23.05.2019 04:00:00 8,5 6,4 3 2 8 4 NNE 1019,5 20 0 0,0
23.05.2019 03:00:00 9,4 7,0 2 1 5 3 N 1019,8 20 0 0,0
23.05.2019 02:00:00 - - - - - - - - - - -
23.05.2019 01:00:00 - - - - - - - - - - -
23.05.2019 00:00:00 - - - - - - - - - - -
22.05.2019 23:00:00 15,3 9,2 3 2 8 4 NW 1018,3 20 0 0,0
22.05.2019 22:00:00 - - - - - - - - - - -
22.05.2019 21:00:00 - - - - - - - - - - -
22.05.2019 20:00:00 - - - - - - - - - - -
22.05.2019 19:00:00 - - - - - - - - - - -
22.05.2019 18:00:00 - - - - - - - - - - -
22.05.2019 17:00:00 25,4 5,0 7 4 22 12 NE 1014,1 20 60 0,0
22.05.2019 16:00:00 - - - - - - - - - - -
22.05.2019 15:00:00 23,2 4,1 5 3 15 8 N 1016,0 20 60 0,0
22.05.2019 14:00:00 - - - - - - - - - - -
22.05.2019 13:00:00 - - - - - - - - - - -
22.05.2019 12:00:00 17,1 6,2 4 2 10 6 NE 1018,9 20 60 0,0
22.05.2019 11:00:00 - - - - - - - - - - -
22.05.2019 10:00:00 - - - - - - - - - - -
22.05.2019 09:00:00 7,8 3,9 3 2 5 3 ENE 1022,0 20 48 0,0
22.05.2019 08:00:00 4,1 2,7 0 0 5 3 N 1023,1 20 29 -
22.05.2019 07:00:00 - - - - - - - - - - -
22.05.2019 06:00:00 2,7 1,3 1 1 7 4 N 1023,2 18 0 0,0
22.05.2019 05:00:00 - - - - - - - - - - -
22.05.2019 04:00:00 4,5 2,9 1 1 8 4 S 1022,6 15 0 0,0
22.05.2019 03:00:00 - - - - - - - - - - -
22.05.2019 02:00:00 - - - - - - - - - - -
22.05.2019 01:00:00 - - - - - - - - - - -
22.05.2019 00:00:00 9,0 5,9 4 2 10 5 NW 1021,4 20 0 0,0
21.05.2019 23:00:00 - - - - - - - - - - -
21.05.2019 22:00:00 - - - - - - - - - - -
21.05.2019 21:00:00 - - - - - - - - - - -
21.05.2019 20:00:00 - - - - - - - - - - -
21.05.2019 19:00:00 18,1 7,3 14 7 30 16 NNE 1016,6 20 57 0,0
21.05.2019 18:00:00 - - - - - - - - - - -
21.05.2019 17:00:00 - - - - - - - - - - -
21.05.2019 16:00:00 20,3 4,3 8 5 25 14 ENE 1015,9 20 60 0,0
21.05.2019 15:00:00 - - - - - - - - - - -
21.05.2019 14:00:00 - - - - - - - - - - -
21.05.2019 13:00:00 - - - - - - - - - - -
21.05.2019 12:00:00 14,6 7,1 2 1 10 5 SSW 1018,2 20 60 0,0
21.05.2019 11:00:00 - - - - - - - - - - -
21.05.2019 10:00:00 8,0 5,6 5 3 10 5 E 1020,0 14 25 0,0
21.05.2019 09:00:00 - - - - - - - - - - -
21.05.2019 08:00:00 4,6 3,6 2 1 6 3 SW 1020,5 0,5 0 -
21.05.2019 07:00:00 - - - - - - - - - - -
21.05.2019 06:00:00 - - - - - - - - - - -
21.05.2019 05:00:00 - - - - - - - - - - -
21.05.2019 04:00:00 4,4 2,7 2 1 9 5 ESE 1019,4 14 0 0,0
21.05.2019 03:00:00 - - - - - - - - - - -
21.05.2019 02:00:00 6,0 3,8 2 1 8 4 ENE 1019,3 15 0 -
21.05.2019 01:00:00 - - - - - - - - - - -
21.05.2019 00:00:00 - - - - - - - - - - -
20.05.2019 23:00:00 - - - - - - - - - - -
20.05.2019 22:00:00 11,3 6,8 4 2 22 12 NNW 1016,3 20 0 0,0
20.05.2019 21:00:00 - - - - - - - - - - -
20.05.2019 20:00:00 - - - - - - - - - - -
20.05.2019 19:00:00 18,1 5,6 11 6 30 16 NE 1013,0 20 60 0,0
20.05.2019 18:00:00 - - - - - - - - - - -
20.05.2019 17:00:00 18,7 4,1 12 6 27 14 NE 1012,8 20 60 0,0
20.05.2019 16:00:00 - - - - - - - - - - -
20.05.2019 15:00:00 - - - - - - - - - - -
20.05.2019 14:00:00 - - - - - - - - - - -
20.05.2019 13:00:00 15,4 3,8 5 3 18 10 S 1014,8 20 59 0,0
20.05.2019 12:00:00 - - - - - - - - - - -
20.05.2019 11:00:00 - - - - - - - - - - -
20.05.2019 10:00:00 8,3 3,9 3 2 8 4 E 1017,5 18 60 0,0
20.05.2019 09:00:00 - - - - - - - - - - -
20.05.2019 08:00:00 - - - - - - - - - - -
20.05.2019 07:00:00 - - - - - - - - - - -
20.05.2019 06:00:00 - - - - - - - - - - -
20.05.2019 05:00:00 - - - - - - - - - - -
20.05.2019 04:00:00 1,9 0,4 3 1 5 3 ENE 1018,3 20 0 0,0
20.05.2019 03:00:00 - - - - - - - - - - -
20.05.2019 02:00:00 3,3 1,5 3 2 8 4 NNE 1018,6 20 0 -
20.05.2019 01:00:00 - - - - - - - - - - -
20.05.2019 00:00:00 5,5 2,9 1 1 5 3 E 1018,2 20 0 0,0
19.05.2019 23:00:00 7,5 3,9 2 1 7 4 W 1017,6 20 0 0,0
19.05.2019 22:00:00 9,5 4,1 2 1 17 9 NW 1016,4 20 0 0,0
19.05.2019 21:00:00 - - - - - - - - - - -
19.05.2019 20:00:00 - - - - - - - - - - -
19.05.2019 19:00:00 - - - - - - - - - - -
19.05.2019 18:00:00 - - - - - - - - - - -
19.05.2019 17:00:00 - - - - - - - - - - -
19.05.2019 16:00:00 13,6 3,9 12 6 26 14 N 1014,5 20 47 0,0
19.05.2019 15:00:00 - - - - - - - - - - -
19.05.2019 14:00:00 11,3 4,1 13 7 30 16 WNW 1015,3 20 2 -
19.05.2019 13:00:00 - - - - - - - - - - -
19.05.2019 12:00:00 - - - - - - - - - - -
19.05.2019 11:00:00 - - - - - - - - - - -
19.05.2019 10:00:00 - - - - - - - - - - -
19.05.2019 09:00:00 - - - - - - - - - - -
19.05.2019 08:00:00 - - - - - - - - - - -
19.05.2019 07:00:00 7,7 3,2 2 1 22 12 W 1014,0 20 0 0,0
19.05.2019 06:00:00 - - - - - - - - - - -
19.05.2019 05:00:00 - - - - - - - - - - -
19.05.2019 04:00:00 - - - - - - - - - - -
19.05.2019 03:00:00 - - - - - - - - - - -
19.05.2019 02:00:00 - - - - - - - - - - -
19.05.2019 01:00:00 - - - - - - - - - - -
19.05.2019 00:00:00 - - - - - - - - - - -
18.05.2019 23:00:00 8,9 3,6 8 4 21 11 WNW 1014,3 20 0 0,0
18.05.2019 22:00:00 - - - - - - - - - - -
18.05.2019 21:00:00 - - - - - - - - - - -
18.05.2019 20:00:00 - - - - - - - - - - -
18.05.2019 19:00:00 9,6 4,1 10 5 31 17 WNW 1013,2 20 0 0,0
18.05.2019 18:00:00 - - - - - - - - - - -
18.05.2019 17:00:00 10,7 4,1 13 7 38 20 NW 1012,1 20 22 0,0
18.05.2019 16:00:00 11,3 5,6 6 3 26 14 NW 1011,8 20 7 0,2
18.05.2019 15:00:00 10,9 5,5 8 5 26 14 NNW 1011,8 20 2 0,0
18.05.2019 14:00:00 10,1 5,1 8 5 25 13 WNW 1012,1 20 1 -
18.05.2019 13:00:00 - - - - - - - - - - -
18.05.2019 12:00:00 8,9 4,3 6 3 18 10 NW 1012,4 20 1 0,0
18.05.2019 11:00:00 - - - - - - - - - - -
18.05.2019 10:00:00 - - - - - - - - - - -
18.05.2019 09:00:00 5,7 3,0 4 2 10 5 SSE 1012,6 20 2 0,0
18.05.2019 08:00:00 - - - - - - - - - - -
18.05.2019 07:00:00 3,0 1,1 2 1 10 6 S 1012,9 20 0 0,0
18.05.2019 06:00:00 - - - - - - - - - - -
18.05.2019 05:00:00 3,8 1,5 4 2 9 5 SSW 1013,0 20 0 0,0
18.05.2019 04:00:00 3,2 1,1 4 2 9 5 WSW 1013,7 20 0 0,0
18.05.2019 03:00:00 - - - - - - - - - - -
18.05.2019 02:00:00 - - - - - - - - - - -
18.05.2019 01:00:00 - - - - - - - - - - -
18.05.2019 00:00:00 7,2 2,3 9 5 34 18 WNW 1013,5 20 0 0,0
17.05.2019 23:00:00 - - - - - - - - - - -
17.05.2019 22:00:00 - - - - - - - - - - -
17.05.2019 21:00:00 - - - - - - - - - - -
17.05.2019 20:00:00 - - - - - - - - - - -
17.05.2019 19:00:00 - - - - - - - - - - -
17.05.2019 18:00:00 - - - - - - - - - - -
17.05.2019 17:00:00 11,6 4,3 8 4 28 15 NW 1011,8 20 12 0,0
17.05.2019 16:00:00 - - - - - - - - - - -
17.05.2019 15:00:00 - - - - - - - - - - -
17.05.2019 14:00:00 - - - - - - - - - - -

tt = temperature
td = dewpoint
ff = wind speed
fx = gusts
dd = wind direction
ppp = reduced air pressure
vv = visibility
sd = sunshine duration
rr = precipitation

Next stations